Tracking 27107 objects as of 21-Mar-2023
HD Live streaming from Space Station
objects crossing your sky now

STARLINK-4519

Track STARLINK-4519 now!
10-day predictions
STARLINK-4519 is classified as:


NORAD ID: 53439
Int'l Code: 2022-097BD
Perigee: 546.0 km
Apogee: 547.7 km
Inclination: 53.2 °
Period: 95.4 minutes
Semi major axis: 6917 km
RCS: Unknown
Launch date: August 10, 2022
Source: United States (US)
Launch site: AIR FORCE EASTERN TEST RANGE (AFETR)
Your satellite tracking list
Your tracking list is empty




NASA's NSSDC Master Catalog

Two Line Element Set (TLE):
1 53439U 22097BD  23079.90420313  .00000559  00000-0  53207-4 0  9997
2 53439  53.2148 293.5183 0001265  91.1144 268.9993 15.08843959 34548
Source of the keplerian elements: AFSPC